Flag for Canada Weather past 2 weeks in Prince George, British Columbia, Canada

Now
37 °F

Mostly cloudy.


Feels Like: 32 °F
Forecast: 37 / 55 °F
Wind: 7 mph from South

Location: Prince George


UV Index: 3 (Moderate)

Visibility: 9 mi


Pressure: 29.73 "Hg

Humidity: 93%

Dew point: 36 °F

Location of Prince GeorgeLocation

Historic Weather in Prince George

°F

Prince George temperature yesterday

Maximum temperature yesterday: 41 °F (at 12:00 AM)
Minimum temperature yesterday: 36 °F (at 11:00 AM)
Average temperature yesterday: 39 °F

Past Weeks' High & Low Weather Summary

 TemperatureHumidityPressure
High57 °F (Apr 14, 6:00 PM)100% (Apr 10, 8:01 PM)30.44 "Hg (Apr 10, 8:01 PM)
Low21 °F (Apr 13, 5:00 AM)21% (Apr 8, 5:00 PM)29.63 "Hg (Apr 17, 4:00 PM)
Average40 °F69%29.94 "Hg
* Reported Apr 8 1:00 AM — Apr 23 1:00 AM, Prince George, Weather by CustomWeather, © 2014

Note: Actual official high and low records may vary slightly from our data, if they occured in-between our weather recording intervals... More about our weather records

Advertising

Historic Weather Conditions — Data for Previous 24 hours

 ConditionsComfort  
Time TempWeatherWind HumidityBarometerVisibility
1:00 AM
Apr 23
37 °FMostly cloudy.7 mph93%29.73 "Hg9 mi
12:00 AM37 °FMostly cloudy.10 mph93%29.72 "Hg9 mi
11:00 PM
Apr 22
37 °FLow clouds.7 mph93%29.71 "Hg9 mi
10:46 PM37 °FLow clouds.7 mph93%29.71 "Hg9 mi
10:00 PM37 °FPassing clouds.9 mph100%29.71 "Hg9 mi
9:00 PM39 °FMostly cloudy.9 mph93%29.70 "Hg9 mi
8:00 PM39 °FOvercast.5 mph93%29.70 "Hg9 mi
7:00 PM41 °FPartly sunny.9 mph87%29.70 "Hg9 mi
6:00 PM41 °FMore clouds than sun.8 mph93%29.70 "Hg9 mi
5:00 PM41 °FLight rain. Cloudy.5 mph93%29.70 "Hg9 mi
4:04 PM41 °FMostly cloudy.5 mph87%29.70 "Hg9 mi
3:55 PM41 °FLight rain. Mostly cloudy.3 mph87%29.70 "Hg9 mi
3:00 PM39 °FLight rain. Mostly cloudy.6 mph87%29.70 "Hg9 mi
2:00 PM37 °FLight rain. Low clouds.6 mph93%29.69 "Hg9 mi
1:00 PM37 °FLight rain. Mostly cloudy.2 mph93%29.68 "Hg9 mi
12:00 PM36 °FLight rain. Low clouds.5 mph93%29.69 "Hg9 mi
11:00 AM36 °FLight rain. Mostly cloudy.5 mph93%29.69 "Hg9 mi
10:00 AM37 °FLight rain. Low clouds.8 mph93%29.68 "Hg9 mi
9:00 AM37 °FLight rain. Overcast.10 mph93%29.68 "Hg9 mi
8:00 AM37 °FLight rain. Overcast.8 mph100%29.69 "Hg9 mi
7:00 AM37 °FLight rain. Overcast.No wind100%29.69 "Hg9 mi
6:00 AM37 °FOvercast.No wind93%29.70 "Hg9 mi
5:00 AM37 °FOvercast.2 mph93%29.72 "Hg9 mi
4:00 AM37 °FPassing clouds.2 mph93%29.74 "Hg9 mi
3:00 AM37 °FPassing clouds.3 mph93%29.75 "Hg9 mi
2:00 AM39 °FMostly cloudy.3 mph93%29.76 "Hg9 mi
Weather by CustomWeather, © 2014

See weather overview